Clinton, OK

10:42 PM CST on December 10, 2017 (GMT -0600)
Clinton Municipal

Weather History for KCLK - December, 2012

Change the Weather History Date:

Tuesday, December 25, 2012

  Actual Average (KCSM) Record (KCSM)
Temperature  
Mean Temperature 22 °F -  
Max Temperature 30 °F 47 °F 66 °F (2005)
Min Temperature 14 °F 27 °F 12 °F (2012)
Degree Days  
Heating Degree Days 43    
Moisture  
Dew Point 15 °F    
Average Humidity 75    
Maximum Humidity 86    
Minimum Humidity 59    
Precipitation  
Precipitation 0.00 in - - ()
Sea Level Pressure  
Sea Level Pressure 30.02 in    
Wind  
Wind Speed 21 mph (North)    
Max Wind Speed 31 mph    
Max Gust Speed 40 mph    
Visibility 5 miles    
Events Snow    
Averages and records for this station are not official NWS values.
T = Trace of Precipitation, MM = Missing Value Source: NWS Daily Summary

Daily Weather History Graph

Daily Weather History Graph

Search for Another Location

Airport or City:

Trip Planner

Search our weather history database for the weather conditions in past years. The results will help you decide how hot, cold, wet, or windy it might be!

Date:

Astronomy

Dec. 25, 2012 Rise Set
Actual Time 7:43 AM CST 5:29 PM CST
Civil Twilight 7:14 AM CST 5:57 PM CST
Nautical Twilight 6:42 AM CST 6:29 PM CST
Astronomical Twilight 6:11 AM CST 7:00 PM CST
Moon 3:37 PM CST (12/25) 5:18 AM CST (12/25)
Length of Visible Light 10h 42m
Length of Day
9h 45m
Waxing Gibbous, 94% of the Moon is Illuminated
Dec 25
Waxing Gibbous
Dec 28
Full
Jan 4
Last Quarter
Jan 11
New
Jan 18
First Quarter

Hourly Weather History & Observations

Time (CST) Temp. Windchill Dew Point Humidity Pressure Visibility Wind Dir Wind Speed Gust Speed Precip Events Conditions
12:35 AM 30.2 °F 18.5 °F 17.6 °F 60% 29.87 in 10.0 mi NE 17.3 mph - N/A   Clear
12:55 AM 30.2 °F 19.3 °F 17.6 °F 60% 29.87 in 10.0 mi NE 15.0 mph - N/A   Clear
1:15 AM 28.4 °F 15.8 °F 17.6 °F 64% 29.85 in 10.0 mi NE 18.4 mph 23.0 mph N/A   Clear
1:35 AM 28.4 °F 15.8 °F 17.6 °F 64% 29.86 in 10.0 mi NE 18.4 mph 21.9 mph N/A   Clear
1:55 AM 28.4 °F 16.2 °F 17.6 °F 64% 29.87 in 10.0 mi NE 17.3 mph - N/A   Clear
2:15 AM 28.4 °F 14.7 °F 15.8 °F 59% 29.86 in 10.0 mi NE 21.9 mph 26.5 mph N/A   Clear
2:35 AM 28.4 °F 16.6 °F 15.8 °F 59% 29.88 in 10.0 mi NNE 16.1 mph - N/A   Clear
3:15 AM 26.6 °F 12.4 °F 15.8 °F 64% 29.87 in 10.0 mi NE 21.9 mph 26.5 mph N/A   Scattered Clouds
3:35 AM 26.6 °F 12.7 °F 17.6 °F 69% 29.87 in 10.0 mi NNE 20.7 mph - N/A   Scattered Clouds
3:55 AM 24.8 °F 10.0 °F 17.6 °F 74% 29.88 in 10.0 mi NNE 21.9 mph - N/A   Overcast
4:15 AM 24.8 °F 9.3 °F 17.6 °F 74% 29.87 in 10.0 mi NNE 24.2 mph 27.6 mph N/A   Mostly Cloudy
4:35 AM 24.8 °F 10.0 °F 17.6 °F 74% 29.88 in 10.0 mi NNE 21.9 mph 28.8 mph N/A   Scattered Clouds
4:55 AM 23.0 °F 8.0 °F 17.6 °F 80% 29.88 in 10.0 mi NNE 20.7 mph 27.6 mph N/A   Mostly Cloudy
5:15 AM 23.0 °F 7.2 °F 17.6 °F 80% 29.88 in 7.0 mi NNE 23.0 mph 31.1 mph N/A Snow Light Snow
5:35 AM 23.0 °F 7.2 °F 17.6 °F 80% 29.89 in 10.0 mi North 23.0 mph - N/A   Overcast
5:55 AM 23.0 °F 7.6 °F 17.6 °F 80% 29.90 in 7.0 mi North 21.9 mph 28.8 mph N/A Snow Light Snow
6:15 AM 23.0 °F 8.0 °F 17.6 °F 80% 29.92 in 4.0 mi North 20.7 mph 29.9 mph N/A Snow Light Snow
6:35 AM 23.0 °F 6.9 °F 17.6 °F 80% 29.93 in 5.0 mi North 24.2 mph 28.8 mph N/A Snow Light Snow
6:55 AM 21.2 °F 6.0 °F 17.6 °F 86% 29.94 in 1.8 mi North 19.6 mph 24.2 mph N/A Snow Light Snow
7:15 AM 21.2 °F 6.8 °F 17.6 °F 86% 29.95 in 1.8 mi North 17.3 mph 26.5 mph N/A Snow Light Snow
7:35 AM 21.2 °F 4.9 °F 17.6 °F 86% 29.94 in 2.0 mi North 23.0 mph 26.5 mph N/A Snow Light Snow
7:55 AM 21.2 °F 6.0 °F 17.6 °F 86% 29.94 in 2.5 mi North 19.6 mph - N/A Snow Light Snow
8:15 AM 21.2 °F 3.3 °F 17.6 °F 86% 29.88 in 1.5 mi North 28.8 mph 34.5 mph N/A Snow Light Snow
8:35 AM 21.2 °F 8.3 °F 17.6 °F 86% 29.97 in 1.8 mi North 13.8 mph 24.2 mph N/A Snow Light Snow
8:55 AM 21.2 °F 4.2 °F 17.6 °F 86% 29.96 in 1.0 mi North 25.3 mph 29.9 mph N/A Snow Light Snow
9:15 AM 21.2 °F 4.5 °F 17.6 °F 86% 29.95 in 0.8 mi North 24.2 mph 34.5 mph N/A Snow Light Snow
9:35 AM 21.2 °F 3.3 °F 17.6 °F 86% 29.96 in 0.5 mi North 28.8 mph 38.0 mph N/A Snow Snow
9:55 AM 21.2 °F 3.3 °F 17.6 °F 86% 29.97 in 0.5 mi North 28.8 mph 34.5 mph N/A Snow Snow
10:15 AM 21.2 °F 5.2 °F 17.6 °F 86% 29.99 in 0.5 mi North 21.9 mph 28.8 mph N/A Snow Snow
10:35 AM 21.2 °F 4.5 °F 17.6 °F 86% 30.01 in 0.5 mi North 24.2 mph 29.9 mph N/A Snow Snow
10:55 AM 21.2 °F 3.9 °F 17.6 °F 86% 30.02 in 0.5 mi North 26.5 mph 31.1 mph N/A Snow Light Snow
11:15 AM 21.2 °F 4.5 °F 17.6 °F 86% 30.02 in 0.5 mi North 24.2 mph 34.5 mph N/A Snow Snow
11:35 AM 21.2 °F 4.5 °F 17.6 °F 86% 30.04 in 0.8 mi North 24.2 mph 31.1 mph N/A Snow Light Snow
11:55 AM 21.2 °F 5.2 °F 15.8 °F 80% 30.04 in 1.0 mi North 21.9 mph 34.5 mph N/A Snow Light Snow
12:15 PM 21.2 °F 4.5 °F 15.8 °F 80% 30.04 in 1.0 mi North 24.2 mph 32.2 mph N/A Snow Light Snow
12:35 PM 21.2 °F 3.5 °F 15.8 °F 80% 30.04 in 0.8 mi North 27.6 mph 33.4 mph N/A Snow Light Snow
12:55 PM 21.2 °F 3.3 °F 17.6 °F 86% 30.04 in 0.8 mi North 28.8 mph 34.5 mph N/A Snow Light Snow
1:15 PM 21.2 °F 4.2 °F 17.6 °F 86% 30.06 in 0.8 mi North 25.3 mph 32.2 mph N/A Snow Light Snow
1:35 PM 21.2 °F 3.5 °F 17.6 °F 86% 30.06 in 0.8 mi North 27.6 mph - N/A Snow Light Snow
1:55 PM 21.2 °F 3.5 °F 15.8 °F 80% 30.05 in 0.8 mi North 27.6 mph 38.0 mph N/A Snow Light Snow
2:15 PM 21.2 °F 3.9 °F 15.8 °F 80% 30.06 in 1.5 mi North 26.5 mph 35.7 mph N/A Snow Light Snow
2:35 PM 21.2 °F 3.0 °F 14.0 °F 74% 30.06 in 0.8 mi North 29.9 mph 36.8 mph N/A Snow Light Snow
3:15 PM 21.2 °F 3.9 °F 14.0 °F 74% 30.07 in 1.0 mi North 26.5 mph 38.0 mph N/A Snow Light Snow
3:35 PM 23.0 °F 6.0 °F 15.8 °F 74% 30.07 in 1.8 mi North 27.6 mph 33.4 mph N/A   Haze
3:55 PM 23.0 °F 6.6 °F 15.8 °F 74% 30.08 in 1.8 mi North 25.3 mph 36.8 mph N/A   Haze
4:15 PM 23.0 °F 5.1 °F 15.8 °F 74% 30.08 in 1.0 mi North 31.1 mph 40.3 mph N/A   Haze
4:35 PM 23.0 °F 6.6 °F 14.0 °F 68% 30.09 in 1.8 mi North 25.3 mph 36.8 mph N/A   Haze
4:55 PM 23.0 °F 6.6 °F 14.0 °F 68% 30.09 in 4.0 mi North 25.3 mph 31.1 mph N/A   Haze
5:15 PM 21.2 °F 4.5 °F 14.0 °F 74% 30.09 in 2.0 mi North 24.2 mph - N/A   Haze
6:15 PM 21.2 °F 5.6 °F 12.2 °F 68% 30.13 in 7.0 mi North 20.7 mph 28.8 mph N/A   Clear
6:35 PM 21.2 °F 4.2 °F 12.2 °F 68% 30.13 in 7.0 mi North 25.3 mph 29.9 mph N/A   Clear
6:55 PM 21.2 °F 6.4 °F 10.4 °F 63% 30.15 in 10.0 mi North 18.4 mph 25.3 mph N/A   Clear
7:15 PM 21.2 °F 6.0 °F 10.4 °F 63% 30.15 in 7.0 mi North 19.6 mph 31.1 mph N/A   Clear
7:55 PM 19.4 °F 2.8 °F 10.4 °F 68% 30.16 in 10.0 mi North 21.9 mph - N/A   Clear
8:15 PM 19.4 °F 3.2 °F 8.6 °F 63% 30.17 in 10.0 mi North 20.7 mph 25.3 mph N/A   Clear
8:35 PM 17.6 °F 2.2 °F 10.4 °F 73% 30.18 in 7.0 mi NNW 17.3 mph 25.3 mph N/A   Clear
8:55 PM 17.6 °F 1.3 °F 8.6 °F 68% 30.20 in 10.0 mi North 19.6 mph 25.3 mph N/A   Clear
9:15 PM 17.6 °F 2.2 °F 8.6 °F 68% 30.21 in 10.0 mi North 17.3 mph 26.5 mph N/A   Clear
10:15 PM 15.8 °F -0.6 °F 8.6 °F 73% 30.24 in 10.0 mi North 18.4 mph - N/A   Clear
10:35 PM 15.8 °F -0.2 °F 8.6 °F 73% 30.25 in 10.0 mi NNW 17.3 mph - N/A   Clear
10:55 PM 15.8 °F 0.9 °F 6.8 °F 68% 30.26 in 10.0 mi NNW 15.0 mph - N/A   Clear
11:15 PM 14.0 °F -2.5 °F 6.8 °F 73% 30.26 in 10.0 mi NNW 17.3 mph - N/A   Clear
11:35 PM 14.0 °F -1.4 °F 5.0 °F 67% 30.27 in 10.0 mi NNW 15.0 mph - N/A   Clear
11:55 PM 14.0 °F -2.0 °F 5.0 °F 67% 30.26 in 10.0 mi NNW 16.1 mph - N/A   Clear